TimeCDT,TemperatureF,Dew PointF,Humidity,Sea Level PressureIn,VisibilityMPH,Wind Direction,Wind SpeedMPH,Gust SpeedMPH,PrecipitationIn,Events,Conditions,WindDirDegrees,DateUTC
12:52 AM,75.9,63.0,64,29.88,-9999.0,NNE,5.8,-,N/A,,Unknown,30,2013-07-23 05:52:00
1:52 AM,73.0,62.1,68,29.79,-9999.0,Variable,5.8,23.0,N/A,,Unknown,0,2013-07-23 06:52:00
2:52 AM,73.9,64.0,71,29.77,-9999.0,SSW,6.9,-,N/A,,Unknown,210,2013-07-23 07:52:00
3:52 AM,73.0,64.9,76,29.78,-9999.0,NE,6.9,-,N/A,,Unknown,40,2013-07-23 08:52:00
4:52 AM,71.1,66.0,84,29.80,-9999.0,North,4.6,-,N/A,,Unknown,10,2013-07-23 09:52:00
5:52 AM,69.1,64.0,84,29.81,-9999.0,Calm,Calm,-,N/A,,Unknown,0,2013-07-23 10:52:00
6:52 AM,69.1,63.0,81,29.83,-9999.0,Calm,Calm,-,N/A,,Unknown,0,2013-07-23 11:52:00
7:52 AM,72.0,63.0,73,29.83,-9999.0,NNE,6.9,-,N/A,,Unknown,30,2013-07-23 12:52:00
8:52 AM,75.9,64.0,67,29.87,-9999.0,NNE,5.8,-,N/A,,Unknown,30,2013-07-23 13:52:00
9:52 AM,78.1,64.0,62,29.89,-9999.0,NE,8.1,-,N/A,,Unknown,40,2013-07-23 14:52:00
10:52 AM,80.1,63.0,56,29.89,-9999.0,North,8.1,-,N/A,,Unknown,10,2013-07-23 15:52:00
11:52 AM,80.1,64.0,58,29.88,-9999.0,NNE,5.8,-,N/A,,Unknown,30,2013-07-23 16:52:00
12:52 PM,82.0,66.0,58,29.85,-9999.0,ENE,9.2,-,N/A,,Unknown,70,2013-07-23 17:52:00
1:52 PM,82.0,64.0,54,29.89,-9999.0,NE,3.5,-,N/A,,Unknown,50,2013-07-23 18:52:00
2:52 PM,79.0,68.0,69,29.91,-9999.0,Calm,Calm,-,0.01,,Unknown,0,2013-07-23 19:52:00
3:52 PM,81.0,66.0,60,29.86,-9999.0,North,9.2,-,N/A,,Unknown,360,2013-07-23 20:52:00
4:52 PM,82.9,64.9,54,29.87,-9999.0,North,9.2,17.3,N/A,,Unknown,10,2013-07-23 21:52:00
5:52 PM,82.0,63.0,52,29.86,-9999.0,North,6.9,-,N/A,,Unknown,360,2013-07-23 22:52:00
6:52 PM,80.1,61.0,52,29.86,-9999.0,NNE,10.4,-,N/A,,Unknown,20,2013-07-23 23:52:00
7:52 PM,77.0,60.1,56,29.90,-9999.0,North,5.8,-,N/A,,Unknown,10,2013-07-24 00:52:00
8:52 PM,73.0,59.0,61,29.91,-9999.0,NNE,4.6,-,N/A,,Unknown,20,2013-07-24 01:52:00
9:52 PM,71.1,59.0,66,29.94,-9999.0,NNE,5.8,-,N/A,,Unknown,20,2013-07-24 02:52:00
10:52 PM,69.1,57.9,68,29.94,-9999.0,NNE,8.1,-,N/A,,Unknown,30,2013-07-24 03:52:00
11:52 PM,66.9,57.9,73,29.95,-9999.0,NNE,4.6,-,N/A,,Unknown,20,2013-07-24 04:52:00